User: anonymous   Login
Location: *
(51.1248°S, 108.4023°W)
Time: 06:38:06
(UTC+00:00)
Language:

Landsat 5 - Orbit

View from above orbital plane
View from above orbital plane
View from above satellite
View from above satellite

Ground track
Ground track

The orbit data is extracted from the following two-line orbital elements,

1 14780U 84021A   21263.57238599  .00000317  00000-0  34760-4 0  9992
2 14780  98.2089  85.0168 0090879  93.6229 267.5387 14.92371481532390
Epoch (UTC): 20 September 2021 13:44:14
Eccentricity: 0.0090879
inclination: 98.2089°
perigee height: 527 km
apogee height: 654 km
right ascension of ascending node: 85.0168°
argument of perigee: 93.6229°
revolutions per day: 14.92371481
mean anomaly at epoch: 267.5387°
orbit number at epoch: 53239

The dashed part of the orbit path shows where the satellite is in the earth's shadow,  

DLR